Preview of NWS' New Version of Forecast
This preview is not operational and should not be used for support decisions.

Regional Weather Roundup (RWR)

Issued by National Weather Service (NWS)

                            
000
ASUS43 KDTX 220901
RWRMI 
MICHIGAN HOURLY REGIONAL WEATHER ROUNDUP
NATIONAL WEATHER SERVICE DETROIT/PONTIAC MI
500 AM EDT MON APR 22 2019

NOTE: "FAIR" INDICATES FEW OR NO CLOUDS BELOW 12,000 FEET WITH NO
SIGNIFICANT WEATHER AND/OR OBSTRUCTION TO VISIBILITY.

MIZ047>049-052>055-059>063-066>070-074>076-081>083-221000-
SOUTHEAST LOWER MICHIGAN
  
CITY           SKY/WX    TMP DP  RH WIND       PRES   REMARKS
ADRIAN         FAIR      45  42  89 S3        30.17S                  
ALMA           FAIR      54  43  66 S6        30.12S                  
ANN ARBOR      FAIR      42  41  96 CALM      30.16S                  
BAD AXE        FAIR      50  42  75 SE3       30.14S                  
CARO           FAIR      46  42  84 CALM      30.14R                  
DETROIT CITY   FAIR      46  40  79 S3        30.18S                  
DETROIT        FAIR      47  41  80 SE5       30.18R                  
FLINT          FAIR      52  43  71 S6        30.14F                  
GROSSE ILE     FAIR      45  44  95 S6        30.18S                  
HILLSDALE      FAIR      49  40  72 S5        30.16S                  
HOWELL         FAIR      49  42  76 CALM      30.15S                  

CITY           SKY/WX    TMP DP  RH WIND       PRES   REMARKS
JACKSON        FAIR      49  42  77 CALM      30.15S                  
LAMBERTVILLE   FAIR      44  43  97 CALM      30.18R                  
LANSING        FAIR      51  43  74 S8        30.13S                  
LAPEER         FAIR      44  43  96 CALM      30.16R                  
MASON          FAIR      50  43  77 S6        30.14S                  
MONROE         FAIR      45  44  97 CALM      30.18R                  
MT. CLEMENS    CLOUDY    41  41 100 CALM      30.16S                  
PONTIAC        FAIR      43  40  89 CALM      30.15S                  
PORT HOPE        N/A     49  42  77 SE5       30.13R                  
TRI CITIES     FAIR      52  45  77 S9        30.12S                  
MIDLAND        FAIR      54  43  67 CALM      30.11S                  
TROY           FAIR      46  39  75 CALM      30.18F                  
SAGINAW HB     FAIR      52  45  76 S6        30.13R                  
$$
MIZ043>046-050>051-056>058-064>065-071>073-077>080-221000-
SOUTHWEST LOWER MICHIGAN
  
CITY           SKY/WX    TMP DP  RH WIND       PRES   REMARKS
BATTLE CREEK   FAIR      51  43  74 S10       30.13F                  
BENTON HARBOR  FAIR      54  40  59 SE6       30.09R                  
BIG RAPIDS     FAIR      55  39  56 S7        30.09S                  
COLDWATER      FAIR      49  44  80 SE3       30.15S                  
FREMONT        FAIR      56  39  52 SE3       30.08S                  
HOLLAND        FAIR      54  43  66 SE8       30.09S                  
GRAND RAPIDS   FAIR      55  43  63 S9        30.10R                  
IONIA          FAIR      52  41  67 S5        30.12R                  
KALAMAZOO      FAIR      52  44  74 SE7       30.12F                  
LUDINGTON      FAIR      58  35  42 SE5       30.05S                  
MARSHALL       FAIR      50  44  78 SE5       30.13F                  
MOUNT PLEASANT FAIR      55  42  61 S5        30.10S                  
MUSKEGON       FAIR      55  39  54 SE7       30.09R                  
SOUTH HAVEN    FAIR      56  41  57 S7        30.09S                  
$$
MIZ016>042-221000-
NORTHERN LOWER MICHIGAN
  
CITY           SKY/WX    TMP DP  RH WIND       PRES   REMARKS
ALPENA         CLOUDY    43  38  82 SE3       30.12S                  
BEAVER ISLAND  CLOUDY    41  32  69 E7        30.07F                  
BELLAIRE       FAIR      46  39  76 CALM      30.07S                  
CADILLAC       LGT RAIN  57  37  46 S5        30.08R                  
CHARLEVOIX     MOCLDY    47  33  57 SE5       30.09S                  
FRANKFORT      FAIR      63  31  30 SE5       30.04F                  
GAYLORD        FAIR      50  36  58 S6        30.09R                  
HARBOR SPRINGS FAIR      46  31  56 E7        30.08F                  
HOUGHTON LAKE  FAIR      53  35  50 CALM      30.11R                  
MANISTEE       FAIR      60  37  42 SE5       30.05R                  
OSCODA         CLOUDY    47  40  76 CALM      30.13S                  
PELLSTON       MOCLDY    41  33  73 CALM      30.11R                  
ROGERS CITY    FAIR      40  36  83 CALM      30.12R                  
TRAVERSE CITY  FAIR      46  35  65 CALM      30.06R                  
$$
MIZ007>008-015-221000-
EASTERN UPPER MICHIGAN
  
CITY           SKY/WX    TMP DP  RH WIND       PRES   REMARKS
KINROSS        RAIN      44  35  70 E7        30.14R                  
MACKINAC ISLAN CLOUDY    39  31  72 E15G23    30.10F WCI  31          
NEWBERRY       LGT RAIN  41  39  92 NE3       30.11R                  
S. S. MARIE    LGT RAIN  44  40  85 E3        30.14R                  
MUNISING         N/A     37  36  96 CALM      30.07F                  
$$
MIZ004>006-011>014-085-221000-
CENTRAL UPPER MICHIGAN
  
CITY           SKY/WX    TMP DP  RH WIND       PRES   REMARKS
MANISTIQUE     CLOUDY    43  35  72 NE6       30.08R                  
ESCANABA       LGT RAIN  43  37  79 NE7       30.07S                  
MENOMINEE      CLOUDY    44  35  70 NE8       30.05S                  
SAWYER-GWINN   LGT RAIN  38  37  95 N7        30.08R WCI  32          
$$
MIZ001>003-009>011-084-221000-
WESTERN UPPER MICHIGAN
  
CITY           SKY/WX    TMP DP  RH WIND       PRES   REMARKS
IRON MOUNTAIN  LGT RAIN  43  37  79 SE10      30.02F                  
HOUGHTON       CLOUDY    41  38  89 E7        30.11S                  
COPPER HARBOR    N/A     37  35  92 CALM      30.14S                  
IRONWOOD       RAIN      40  40 100 N3        30.08R                  
$$

ABBREVIATIONS USED IN REMARKS
   TC - TEMPERATURE IN CELSIUS
  WCI - WIND CHILL INDEX
   HX - HEAT INDEX
  VSB - VISIBILITY